Terug naar catalogus

STARLINK-36747

ActiefCommunicatieSSO
NORAD 67730·PAYLOAD·🇺🇸 United States

Gelanceerd Feb 11, 2026 vanaf Vandenberg Space Force Base

Loading…

Volgende Passages (komende 24 uur)

TLE

VersSource: CelesTrak SupGP

Epoch: Sep 14, 2026, 21:25 UTC

1 67730C 26026K   26257.89284722 -.00011296  00000+0 -35072-3 0  2570
2 67730  97.2844 309.7836 0001076  93.2068 129.2564 15.33439613    15

Volg STARLINK-36747 in realtime met AllMySat

Download on the App Store